Location: Aufkirchen
(47.9603°N, 11.3653°E)
Time: 14:47:49
(UTC+01:00)

Courier 1B Rocket - Pass Details

Date: 27 November 2020
Orbit: 920 x 1202 km, 28.2° (Epoch: 17 January)

Event Time Altitude Azimuth Distance (km) Brightness Sun altitude
Rises 06:55:13 0° 220° (SW) 4,080 8.1 -7.2°
Reaches altitude 10° 06:59:50 10° 196° (SSW) 3,092 7.7 -6.5°
Maximum altitude 07:03:18 14° 169° (S) 2,793 7.9 -6.0°
Drops below altitude 10° 07:06:43 10° 142° (SE) 3,027 8.8 -5.5°
Sets 07:11:08 0° 118° (ESE) 3,929 11.3 -4.8°
